User: anonymous   Login
Location: Unspecified
(0.0000°N, 0.0000°E)
Time: 19:56:21
(UTC+01:00)
Language:

Ariane H10 - Orbit

View from above orbital plane
View from above orbital plane
View from above satellite
View from above satellite

Ground track
Ground track

The orbit data is extracted from the following two-line orbital elements,

1 21815U 91084C   16045.40090824  .00000908  00000-0  21174-2 0  9996
2 21815   3.9700 289.3800 7200471  29.5079 356.5368  2.31590289200996
Epoch (UTC): 14 February 2016 09:37:18
Eccentricity: 0.7200471
inclination: 3.9700°
perigee height: 377 km
apogee height: 35129 km
right ascension of ascending node: 289.3800°
argument of perigee: 29.5079°
revolutions per day: 2.31590289
mean anomaly at epoch: 356.5368°
orbit number at epoch: 20099

The dashed part of the orbit path shows where the satellite is in the earth's shadow,  

DLR